Weather History for CYQZ - October, 2012

Change the Weather History Date:

Wednesday, October 17, 2012

  Actual Average Record
Temperature  
Mean Temperature 37 °F -  
Max Temperature 50 °F 48 °F 57 °F (2000)
Min Temperature 24 °F 31 °F 19 °F (2006)
Degree Days  
Heating Degree Days 28    
Moisture  
Dew Point 24 °F    
Average Humidity 59    
Maximum Humidity 93    
Minimum Humidity 32    
Precipitation  
Precipitation 0.00 in - - ()
Sea Level Pressure  
Sea Level Pressure 30.16 in    
Wind  
Wind Speed 3 mph ()    
Max Wind Speed 16 mph    
Max Gust Speed 18 mph    
Visibility 9.0 miles    
Events      
Averages and records for this station are not official NWS values.
T = Trace of Precipitation, MM = Missing Value Source: Averaged Metar Reports

Daily Weather History Graph

Daily Weather History Graph

Search for Another Location

Airport or City:

Trip Planner

Search our weather history database for the weather conditions in past years. The results will help you decide how hot, cold, wet, or windy it might be!

Date:

Astronomy

Oct. 17, 2012 Rise Set
Actual Time 7:41 AM PDT 6:08 PM PDT
Civil Twilight 7:06 AM PDT 6:43 PM PDT
Nautical Twilight 6:25 AM PDT 7:23 PM PDT
Astronomical Twilight 5:45 AM PDT 8:03 PM PDT
Moon 10:48 AM PDT (10/17) 7:21 PM PDT (10/17)
Length of Visible Light 11h 37m
Length of Day
10h 27m
Waxing Crescent, 8% of the Moon is Illuminated
Oct 17
Waxing Crescent
Oct 21
First Quarter
Oct 29
Full
Nov 6
Last Quarter
Nov 13
New

Hourly Weather History & Observations

Time (PDT) Temp. Windchill Dew Point Humidity Pressure Visibility Wind Dir Wind Speed Gust Speed Precip Events Conditions
12:00 AM 35.6 °F - 24.8 °F 65% 30.07 in 9.0 mi Calm Calm - N/A   Clear
1:00 AM 33.8 °F - 23.0 °F 65% 30.10 in 9.0 mi Variable 2.3 mph - N/A   Clear
2:00 AM 32.0 °F - 23.0 °F 69% 30.13 in 9.0 mi Variable 2.3 mph - N/A   Partly Cloudy
3:00 AM 28.4 °F - 23.0 °F 80% 30.15 in 9.0 mi Calm Calm - N/A   Clear
4:00 AM 26.6 °F - 23.0 °F 86% 30.17 in 9.0 mi Calm Calm - N/A   Clear
5:00 AM 26.6 °F 22.6 °F 23.0 °F 86% 30.20 in 9.0 mi NW 3.5 mph - N/A   Clear
6:00 AM 24.8 °F - 21.2 °F 86% 30.22 in 9.0 mi Calm Calm - N/A   Clear
7:00 AM 26.6 °F - 23.0 °F 86% 30.23 in 9.0 mi Variable 2.3 mph - N/A   Mostly Cloudy
8:00 AM 24.8 °F - 23.0 °F 93% 30.26 in 9.0 mi Calm Calm - N/A   Mostly Cloudy
9:00 AM 30.2 °F - 26.6 °F 86% 30.27 in 9.0 mi Calm Calm - N/A   Overcast
10:00 AM 35.6 °F 31.7 °F 28.4 °F 75% 30.27 in 9.0 mi South 4.6 mph - N/A   Overcast
11:00 AM 37.4 °F 34.9 °F 28.4 °F 70% 30.27 in 9.0 mi South 3.5 mph - N/A   Overcast
12:00 PM 44.6 °F 41.4 °F 28.4 °F 53% 30.25 in 9.0 mi South 5.8 mph - N/A   Overcast
2:00 PM 48.2 °F - 26.6 °F 43% 30.21 in 9.0 mi South 9.2 mph - N/A   Clear
3:00 PM 48.2 °F - 23.0 °F 37% 30.20 in 9.0 mi SSE 9.2 mph - N/A   Clear
4:00 PM 50.0 °F - 23.0 °F 35% 30.19 in 9.0 mi SSE 9.2 mph - N/A   Clear
5:00 PM 50.0 °F - 21.2 °F 32% 30.18 in 9.0 mi SE 5.8 mph - N/A   Clear
6:00 PM 48.2 °F - 21.2 °F 34% 30.15 in 9.0 mi SE 8.1 mph - N/A   Overcast
7:00 PM 48.2 °F - 23.0 °F 37% 30.13 in 9.0 mi SE 6.9 mph - N/A   Overcast
8:00 PM 48.2 °F - 23.0 °F 37% 30.12 in 9.0 mi SE 8.1 mph - N/A   Overcast
9:00 PM 48.2 °F - 23.0 °F 37% 30.07 in 9.0 mi SE 13.8 mph - N/A   Overcast
10:00 PM 46.4 °F 44.3 °F 23.0 °F 40% 30.05 in 9.0 mi SSE 4.6 mph - N/A   Overcast
10:17 PM 48.2 °F - 23.0 °F 37% 30.03 in 9.0 mi SSE 16.1 mph - N/A   Overcast
11:00 PM 48.2 °F - 23.0 °F 37% 30.01 in 9.0 mi SE 9.2 mph 18.4 mph N/A   Overcast